Weather History for Rickenbacker, OH

Change the Weather History Date:

Wednesday, October 17, 2012

  Actual Average Record
Temperature  
Mean Temperature 62 °F -  
Max Temperature 75 °F 62 °F 80 °F (1998)
Min Temperature 49 °F 43 °F 35 °F (2004)
Degree Days  
Heating Degree Days 3    
Growing Degree Days 12 (Base 50)    
Moisture  
Dew Point 39 °F    
Average Humidity 44    
Maximum Humidity 60    
Minimum Humidity 23    
Precipitation  
Precipitation 0.00 in - - ()
Sea Level Pressure  
Sea Level Pressure 29.77 in    
Wind  
Wind Speed 6 mph (SSE)    
Max Wind Speed 18 mph    
Max Gust Speed 26 mph    
Visibility 10 miles    
Events      
Averages and records for this station are not official NWS values.
T = Trace of Precipitation, MM = Missing Value Source: NWS Daily Summary

Daily Weather History Graph

Daily Weather History Graph

Search for Another Location

Airport:

Trip Planner

Search our weather history database for the weather conditions in past years. The results will help you decide how hot, cold, wet, or windy it might be!

Date:

Astronomy

Oct. 17, 2012 Rise Set
Actual Time 7:44 AM EDT 6:48 PM EDT
Civil Twilight 7:17 AM EDT 7:15 PM EDT
Nautical Twilight 6:45 AM EDT 7:47 PM EDT
Astronomical Twilight 6:14 AM EDT 8:18 PM EDT
Moon 10:17 AM EDT (10/17) 8:23 PM EDT (10/17)
Length of Visible Light 11h 58m
Length of Day
11h 04m
Waxing Crescent, 7% of the Moon is Illuminated
Oct 17
Waxing Crescent
Oct 21
First Quarter
Oct 29
Full
Nov 6
Last Quarter
Nov 13
New

Hourly Weather History & Observations

Time (EDT) Temp. Dew Point Humidity Pressure Visibility Wind Dir Wind Speed Gust Speed Precip Events Conditions
12:15 AM 50.0 °F 35.4 °F 57% 29.85 in 10.0 mi South 3.5 mph - N/A   Clear
12:35 AM 49.5 °F 35.6 °F 59% 29.85 in 10.0 mi Calm Calm - N/A   Clear
12:55 AM 49.3 °F 35.6 °F 59% 29.85 in 10.0 mi Calm Calm - N/A   Scattered Clouds
1:15 AM 49.1 °F 35.6 °F 60% 29.84 in 10.0 mi SSE 3.5 mph - N/A   Clear
1:35 AM 49.6 °F 36.0 °F 59% 29.84 in 10.0 mi SE 4.6 mph - N/A   Clear
1:55 AM 50.5 °F 36.3 °F 58% 29.84 in 10.0 mi Calm Calm - N/A   Clear
2:15 AM 50.9 °F 36.0 °F 57% 29.84 in 10.0 mi Calm Calm - N/A   Clear
2:35 AM 51.8 °F 35.6 °F 54% 29.85 in 10.0 mi Calm Calm - N/A   Clear
2:55 AM 51.8 °F 35.6 °F 54% 29.84 in 10.0 mi Calm Calm - N/A   Scattered Clouds
3:15 AM 51.8 °F 36.0 °F 55% 29.84 in 10.0 mi Calm Calm - N/A   Mostly Cloudy
3:35 AM 52.2 °F 36.5 °F 55% 29.83 in 10.0 mi Calm Calm - N/A   Overcast
3:55 AM 52.7 °F 36.7 °F 55% 29.82 in 10.0 mi Calm Calm - N/A   Overcast
4:15 AM 53.1 °F 36.9 °F 54% 29.82 in 10.0 mi Calm Calm - N/A   Overcast
4:35 AM 54.0 °F 36.3 °F 51% 29.82 in 10.0 mi Calm Calm - N/A   Overcast
4:55 AM 54.0 °F 36.9 °F 52% 29.83 in 10.0 mi Calm Calm - N/A   Overcast
5:15 AM 53.6 °F 37.8 °F 55% 29.82 in 10.0 mi Calm Calm - N/A   Overcast
5:35 AM 53.8 °F 37.6 °F 54% 29.82 in 10.0 mi Calm Calm - N/A   Mostly Cloudy
5:55 AM 53.4 °F 37.8 °F 55% 29.82 in 10.0 mi Calm Calm - N/A   Scattered Clouds
6:15 AM 53.1 °F 37.9 °F 57% 29.83 in 10.0 mi Calm Calm - N/A   Mostly Cloudy
6:35 AM 53.1 °F 38.1 °F 57% 29.83 in 10.0 mi Calm Calm - N/A   Mostly Cloudy
6:55 AM 53.1 °F 37.9 °F 57% 29.83 in 10.0 mi SSE 3.5 mph - N/A   Scattered Clouds
7:15 AM 53.1 °F 37.9 °F 57% 29.83 in 10.0 mi South 5.8 mph - N/A   Overcast
7:35 AM 53.1 °F 38.7 °F 58% 29.83 in 10.0 mi South 6.9 mph - N/A   Mostly Cloudy
7:55 AM 53.8 °F 37.9 °F 55% 29.83 in 10.0 mi South 8.1 mph - N/A   Scattered Clouds
8:15 AM 54.0 °F 37.9 °F 55% 29.83 in 10.0 mi South 6.9 mph - N/A   Mostly Cloudy
8:35 AM 54.3 °F 37.9 °F 54% 29.84 in 10.0 mi South 9.2 mph - N/A   Mostly Cloudy
8:55 AM 54.9 °F 38.1 °F 53% 29.84 in 10.0 mi South 9.2 mph - N/A   Mostly Cloudy
9:15 AM 55.6 °F 38.3 °F 52% 29.85 in 10.0 mi South 6.9 mph - N/A   Scattered Clouds
9:35 AM 56.7 °F 38.7 °F 51% 29.85 in 10.0 mi South 8.1 mph - N/A   Mostly Cloudy
9:55 AM 59.0 °F 39.4 °F 48% 29.85 in 10.0 mi South 10.4 mph - N/A   Mostly Cloudy
10:15 AM 60.4 °F 39.6 °F 46% 29.85 in 10.0 mi South 9.2 mph - N/A   Mostly Cloudy
10:35 AM 61.9 °F 40.3 °F 45% 29.84 in 10.0 mi South 11.5 mph - N/A   Overcast
10:55 AM 63.1 °F 40.8 °F 44% 29.85 in 10.0 mi South 9.2 mph - N/A   Overcast
11:15 AM 64.2 °F 41.0 °F 43% 29.84 in 10.0 mi South 10.4 mph - N/A   Mostly Cloudy
11:35 AM 66.0 °F 41.0 °F 40% 29.83 in 10.0 mi South 8.1 mph - N/A   Mostly Cloudy
11:55 AM 66.6 °F 41.4 °F 40% 29.83 in 10.0 mi South 9.2 mph - N/A   Mostly Cloudy
12:15 PM 67.1 °F 41.5 °F 39% 29.83 in 10.0 mi South 10.4 mph - N/A   Mostly Cloudy
12:35 PM 67.8 °F 40.8 °F 37% 29.82 in 10.0 mi South 10.4 mph - N/A   Mostly Cloudy
12:55 PM 70.0 °F 40.1 °F 34% 29.81 in 10.0 mi South 9.2 mph - N/A   Mostly Cloudy
1:15 PM 71.6 °F 38.8 °F 30% 29.80 in 10.0 mi South 12.7 mph 17.3 mph N/A   Mostly Cloudy
1:35 PM 73.6 °F 37.0 °F 26% 29.79 in 10.0 mi SSW 10.4 mph - N/A   Mostly Cloudy
1:55 PM 73.8 °F 34.9 °F 24% 29.78 in 10.0 mi South 12.7 mph - N/A   Mostly Cloudy
2:15 PM 74.1 °F 35.2 °F 24% 29.76 in 10.0 mi South 17.3 mph - N/A   Mostly Cloudy
2:35 PM 75.6 °F 35.2 °F 23% 29.76 in 10.0 mi SSE 17.3 mph 26.5 mph N/A   Scattered Clouds
2:55 PM 75.2 °F 35.6 °F 24% 29.75 in 10.0 mi South 15.0 mph - N/A   Scattered Clouds
3:15 PM 75.6 °F 36.3 °F 24% 29.74 in 10.0 mi SSE 18.4 mph 24.2 mph N/A   Scattered Clouds
3:35 PM 74.8 °F 36.9 °F 25% 29.73 in 10.0 mi South 15.0 mph 18.4 mph N/A   Clear
3:55 PM 74.5 °F 36.9 °F 26% 29.73 in 10.0 mi SSE 18.4 mph 24.2 mph N/A   Clear
4:15 PM 75.0 °F 36.1 °F 24% 29.73 in 10.0 mi South 16.1 mph 24.2 mph N/A   Clear
4:35 PM 74.5 °F 37.6 °F 26% 29.72 in 10.0 mi South 16.1 mph - N/A   Clear
4:55 PM 75.9 °F 38.7 °F 26% 29.71 in 10.0 mi SSE 13.8 mph - N/A   Clear
5:15 PM 75.4 °F 38.5 °F 26% 29.71 in 10.0 mi SSE 16.1 mph 23.0 mph N/A   Clear
5:35 PM 72.9 °F 39.0 °F 29% 29.70 in 10.0 mi SSE 11.5 mph - N/A   Clear
5:55 PM 72.5 °F 40.3 °F 31% 29.70 in 10.0 mi SSE 9.2 mph - N/A   Clear
6:15 PM 72.3 °F 41.5 °F 33% 29.70 in 10.0 mi SSE 10.4 mph - N/A   Clear
6:35 PM 71.8 °F 42.3 °F 34% 29.69 in 10.0 mi SSE 11.5 mph - N/A   Clear
6:55 PM 71.1 °F 43.0 °F 36% 29.69 in 10.0 mi SE 10.4 mph - N/A   Clear
7:15 PM 70.0 °F 43.5 °F 38% 29.68 in 10.0 mi SSE 10.4 mph - N/A   Clear
7:35 PM 69.8 °F 43.7 °F 39% 29.68 in 10.0 mi SE 10.4 mph - N/A   Clear
7:55 PM 69.3 °F 43.5 °F 39% 29.68 in 10.0 mi SE 11.5 mph - N/A   Clear
8:15 PM 69.4 °F 43.3 °F 39% 29.68 in 10.0 mi SE 9.2 mph - N/A   Clear
8:35 PM 69.1 °F 43.5 °F 40% 29.68 in 10.0 mi SE 10.4 mph - N/A   Clear
8:55 PM 68.2 °F 43.9 °F 41% 29.68 in 10.0 mi SE 8.1 mph - N/A   Clear
9:15 PM 67.5 °F 44.1 °F 43% 29.68 in 10.0 mi SE 9.2 mph - N/A   Clear
9:35 PM 67.3 °F 44.2 °F 43% 29.67 in 10.0 mi SE 9.2 mph - N/A   Clear
9:55 PM 66.7 °F 44.6 °F 45% 29.66 in 10.0 mi SE 9.2 mph - N/A   Clear
10:15 PM 66.4 °F 44.6 °F 45% 29.64 in 10.0 mi SE 11.5 mph - N/A   Clear
10:35 PM 65.8 °F 44.6 °F 46% 29.64 in 10.0 mi SE 11.5 mph - N/A   Clear
10:55 PM 65.5 °F 44.4 °F 46% 29.63 in 10.0 mi SSE 9.2 mph - N/A   Clear
11:15 PM 64.9 °F 43.5 °F 46% 29.63 in 10.0 mi SSE 9.2 mph - N/A   Clear
11:35 PM 64.9 °F 41.9 °F 43% 29.63 in 10.0 mi SSE 10.4 mph - N/A   Clear
11:55 PM 64.8 °F 41.2 °F 42% 29.63 in 10.0 mi SSE 9.2 mph - N/A   Clear